period_start,C,m1,H,J0,J1,J2,J3,J4,J5,JA,JB,JC,JD,JJ,JK,JN,#
2017-08-09 00:02:07,0.09,7.40,0.00,25.09,29.17,31.63,13.94,57.72,1012.65,2020.24,1454.63,1759.62,1910.00,599.97,589.53,16.15,0000 0000 0000 0000 000000
2017-08-09 00:07:09,0.05,7.41,0.00,25.10,29.16,31.63,13.98,57.79,1012.43,2020.19,1453.92,1759.05,1909.78,600.06,589.46,16.20,0000 0000 0000 0000 000000
2017-08-09 00:12:10,0.12,7.41,0.00,25.10,29.15,31.62,13.92,57.84,1012.25,2020.45,1453.18,1758.99,1909.08,600.14,589.39,16.25,0000 0000 0000 0000 000000
2017-08-09 00:17:11,0.06,7.41,0.00,25.10,29.15,31.61,13.98,57.93,1012.23,2020.63,1452.83,1758.68,1909.00,599.80,589.04,16.30,0000 0000 0000 0000 000000
2017-08-09 00:22:13,0.11,7.42,0.00,25.11,29.15,31.60,13.98,57.92,1012.22,2020.67,1452.06,1758.05,1908.61,600.45,589.70,16.35,0000 0000 0000 0000 000000
2017-08-09 00:27:14,0.06,7.42,0.00,25.12,29.15,31.59,13.90,57.74,1011.93,2020.68,1451.52,1758.00,1908.03,599.83,588.92,16.40,0000 0000 0000 0000 000000
2017-08-09 00:32:16,0.05,7.43,0.00,25.13,29.15,31.59,13.90,57.83,1011.75,2020.65,1450.83,1757.68,1907.89,599.72,588.74,16.45,0000 0000 0000 0000 000000
2017-08-09 00:37:17,0.13,7.43,0.00,25.15,29.15,31.58,13.99,57.98,1011.76,2020.76,1449.96,1757.04,1907.13,600.14,588.96,16.50,0000 0000 0000 0000 000000
2017-08-09 00:42:18,0.09,7.44,0.00,25.15,29.15,31.59,13.93,57.83,1011.73,2020.86,1448.99,1756.79,1906.84,600.18,588.84,16.55,0000 0000 0000 0000 000000
2017-08-09 00:47:20,0.13,7.44,0.00,25.16,29.15,31.58,13.91,57.88,1011.72,2020.84,1448.02,1756.06,1906.07,600.00,588.91,16.60,0000 0000 0000 0000 000000
2017-08-09 00:52:21,0.15,7.45,0.00,25.18,29.15,31.58,13.95,57.92,1011.61,2020.95,1446.85,1755.70,1905.63,600.25,589.12,16.65,0000 0000 0000 0000 000000
2017-08-09 00:57:22,0.16,7.46,0.00,25.19,29.15,31.60,13.90,58.15,1011.30,2020.96,1445.40,1754.94,1904.66,599.62,588.24,16.70,0000 0000 0000 0000 000000
2017-08-09 01:02:23,0.15,7.47,0.00,25.20,29.15,31.59,13.91,57.94,1011.25,2020.97,1444.06,1754.10,1903.91,599.87,588.41,16.75,0000 0000 0000 0000 000000
2017-08-09 01:07:24,0.18,7.48,0.00,25.20,29.15,31.60,13.84,58.01,1011.26,2020.97,1442.71,1753.39,1903.02,599.54,588.06,16.80,0000 0000 0000 0000 000000
2017-08-09 01:12:26,0.17,7.48,0.00,25.22,29.17,31.60,13.97,58.05,1011.25,2020.97,1441.27,1752.61,1902.10,599.99,588.47,16.85,0000 0000 0000 0000 000000
2017-08-09 01:17:27,0.19,7.49,0.00,25.23,29.17,31.61,13.91,58.06,1011.25,2020.94,1439.66,1751.72,1901.02,600.09,588.41,16.90,0000 0000 0000 0000 000000
2017-08-09 01:22:29,0.41,7.51,0.00,25.25,29.17,31.61,13.92,58.21,1011.22,2020.82,1437.31,1749.36,1898.80,599.91,588.28,16.95,0000 0000 0000 0000 000000
2017-08-09 01:27:30,0.20,7.52,0.00,25.27,29.18,31.60,13.91,58.17,1010.97,2020.89,1435.59,1748.05,1897.51,600.07,588.19,17.00,0000 0000 0000 0000 000000
2017-08-09 01:32:31,0.19,7.53,0.00,25.29,29.19,31.61,13.91,58.15,1010.76,2020.88,1434.05,1747.26,1896.63,600.33,588.26,17.05,0000 0000 0000 0000 000000
2017-08-09 01:37:32,0.22,7.55,0.00,25.30,29.20,31.62,13.90,58.17,1010.71,2020.80,1432.05,1746.22,1895.53,599.76,587.74,17.10,0000 0000 0000 0000 000000
2017-08-09 01:42:33,0.28,7.56,0.00,25.32,29.20,31.62,13.91,58.13,1010.43,2020.78,1429.76,1744.94,1894.05,600.03,587.88,17.15,0000 0000 0000 0000 000000
2017-08-09 01:47:34,0.34,7.57,0.00,25.34,29.22,31.63,13.80,58.20,1010.34,2020.79,1427.12,1743.60,1892.45,599.64,587.26,17.20,0000 0000 0000 0000 000000
2017-08-09 01:52:35,0.36,7.59,0.00,25.36,29.22,31.64,13.92,58.33,1010.27,2020.66,1424.14,1741.95,1890.58,599.92,587.52,17.25,0000 0000 0000 0000 000000
2017-08-09 01:57:36,0.39,7.61,0.00,25.39,29.24,31.65,13.92,58.38,1010.27,2020.63,1420.81,1740.20,1888.52,600.04,587.64,17.30,0000 0000 0000 0000 000000
2017-08-09 02:02:38,0.55,7.64,0.00,25.40,29.25,31.66,13.94,58.57,1010.26,2020.64,1416.65,1737.93,1885.93,600.05,587.74,17.35,0000 0000 0000 0000 000000
2017-08-09 02:07:39,0.57,7.66,0.00,25.43,29.27,31.67,13.94,58.52,1010.22,2020.56,1411.95,1735.34,1883.02,600.01,587.48,17.40,0000 0000 0000 0000 000000
2017-08-09 02:12:40,0.61,7.69,0.00,25.45,29.28,31.68,13.89,58.73,1009.85,2020.47,1407.04,1732.66,1879.85,599.74,586.93,17.45,0000 0000 0000 0000 000000
2017-08-09 02:17:41,0.71,7.73,0.00,25.47,29.30,31.69,13.90,58.75,1009.78,2020.40,1401.59,1729.62,1876.33,600.08,587.21,17.50,0000 0000 0000 0000 000000
2017-08-09 02:22:43,0.78,7.77,0.00,25.50,29.31,31.69,13.88,58.81,1009.78,2020.38,1395.33,1726.34,1872.43,600.04,587.11,17.55,0000 0000 0000 0000 000000
2017-08-09 02:27:44,0.84,7.81,0.13,25.51,29.32,31.71,13.91,58.97,1009.77,2020.39,1388.73,1722.74,1868.16,600.20,587.31,17.60,0000 0000 0000 0000 000000
2017-08-09 02:32:45,0.79,7.85,1.00,25.54,29.35,31.73,13.88,59.09,1009.57,2020.23,1382.40,1719.13,1863.91,600.05,586.93,17.65,0000 0000 0000 0000 000000
2017-08-09 02:37:46,0.90,7.89,1.00,25.56,29.36,31.73,13.91,59.07,1009.32,2020.18,1375.67,1715.31,1859.50,600.01,586.70,17.70,0000 0000 0000 0000 000000
2017-08-09 02:42:47,0.92,7.93,1.00,25.58,29.37,31.75,13.94,59.34,1009.30,2020.10,1368.45,1711.30,1854.94,600.32,586.92,17.75,0000 0000 0000 0000 000000
2017-08-09 02:47:49,0.96,7.98,1.00,25.63,29.40,31.77,13.85,59.32,1009.29,2020.01,1361.09,1707.18,1850.25,599.82,586.31,17.80,0000 0000 0000 0000 000000
2017-08-09 02:52:50,1.04,8.03,1.00,25.66,29.41,31.80,13.87,59.60,1009.09,2020.02,1353.30,1702.89,1845.25,600.13,586.45,17.85,0000 0000 0000 0000 000000
2017-08-09 02:57:51,1.23,8.09,1.00,25.68,29.44,31.81,13.89,59.77,1008.85,2020.00,1344.35,1697.81,1839.30,600.06,586.21,17.90,0000 0000 0000 0000 000000
2017-08-09 03:02:52,1.50,8.16,1.00,25.71,29.46,31.83,13.86,60.02,1008.83,2020.00,1333.60,1691.82,1832.34,599.65,585.78,17.95,0000 0000 0000 0000 000000
2017-08-09 03:07:54,1.79,8.25,1.00,25.74,29.48,31.85,13.88,60.34,1008.80,2019.99,1320.37,1684.91,1824.26,600.04,586.07,18.00,0000 0000 0000 0000 000000
2017-08-09 03:12:55,1.73,8.34,1.00,25.77,29.50,31.86,13.89,60.52,1008.80,2019.99,1306.98,1678.03,1816.26,600.50,586.43,18.05,0000 0000 0000 0000 000000
2017-08-09 03:17:56,1.57,8.42,1.00,25.79,29.52,31.89,14.00,60.96,1008.80,2019.99,1295.27,1671.71,1808.81,600.42,586.36,18.10,0000 0000 0000 0000 000000
2017-08-09 03:22:57,1.53,8.49,1.00,25.82,29.55,31.91,13.89,61.10,1008.80,2019.95,1284.17,1665.72,1801.74,599.92,585.82,18.15,0000 0000 0000 0000 000000
2017-08-09 03:27:59,1.95,8.58,1.17,25.86,29.57,31.93,13.93,61.58,1008.77,2019.79,1270.61,1658.90,1793.70,600.44,586.37,18.20,0000 0000 0000 0000 000000
2017-08-09 03:33:00,2.32,8.70,2.00,25.89,29.60,31.95,13.88,61.94,1008.48,2019.38,1252.89,1650.66,1784.09,599.54,585.21,18.25,0000 0000 0000 0000 000000
2017-08-09 03:38:01,2.29,8.81,2.00,25.92,29.62,31.97,13.94,62.66,1008.34,2019.07,1235.39,1642.58,1774.68,600.65,586.10,18.30,0000 0000 0000 0000 000000
2017-08-09 03:43:03,2.25,8.93,2.00,25.96,29.65,31.99,13.81,62.37,1008.33,2019.01,1218.64,1634.93,1765.70,599.21,584.53,18.35,0000 0000 0000 0000 000000
2017-08-09 03:48:04,2.22,9.03,2.00,26.00,29.68,32.01,13.91,63.10,1008.33,2019.00,1202.56,1627.55,1757.04,600.05,585.21,18.40,0000 0000 0000 0000 000000
2017-08-09 03:53:05,2.20,9.15,2.00,26.04,29.71,32.03,13.90,63.59,1008.32,2019.00,1186.76,1620.35,1748.74,599.81,585.00,18.45,0000 0000 0000 0000 000000
2017-08-09 03:58:07,2.04,9.25,2.00,26.08,29.73,32.06,13.94,64.06,1008.33,2018.99,1171.95,1613.77,1741.09,599.82,585.02,18.50,0000 0000 0000 0000 000000
2017-08-09 04:03:08,1.88,9.35,2.00,26.13,29.76,32.10,13.87,64.36,1008.33,2018.95,1158.56,1607.71,1734.07,599.57,584.50,18.55,0000 0000 0000 0000 000000
2017-08-09 04:08:09,1.82,9.44,2.00,26.17,29.78,32.13,13.95,64.79,1008.32,2018.83,1145.75,1601.94,1727.45,599.94,584.91,18.60,0000 0000 0000 0000 000000
2017-08-09 04:13:10,2.06,9.54,2.00,26.22,29.81,32.15,13.85,64.77,1008.32,2018.49,1131.87,1595.78,1720.31,600.05,584.88,18.65,0000 0000 0000 0000 000000
2017-08-09 04:18:12,2.55,9.66,2.00,26.26,29.85,32.19,13.84,65.35,1008.32,2018.06,1114.97,1587.99,1711.42,599.66,584.46,18.70,0000 0000 0000 0000 000000
2017-08-09 04:23:13,2.66,9.79,2.00,26.31,29.88,32.21,13.79,65.76,1008.32,2018.00,1097.36,1580.15,1702.30,599.50,584.10,18.75,0000 0000 0000 0000 000000
2017-08-09 04:28:14,2.73,9.92,2.00,26.38,29.91,32.24,14.08,67.38,1008.31,2018.00,1079.81,1572.06,1693.07,600.68,584.96,18.80,0000 0000 0000 0000 000000
2017-08-09 04:33:16,2.81,10.07,2.00,26.43,29.95,32.28,14.05,68.08,1008.25,2017.98,1062.03,1563.86,1683.86,601.00,585.36,18.85,0000 0000 0000 0000 000000
2017-08-09 04:38:17,2.81,10.21,2.00,26.48,29.99,32.31,13.83,67.77,1008.17,2017.93,1044.22,1555.91,1674.87,599.30,583.54,18.90,0000 0000 0000 0000 000000
2017-08-09 04:43:18,2.66,10.35,2.00,26.53,30.02,32.35,13.94,68.73,1007.96,2017.42,1027.06,1548.20,1666.21,599.21,583.11,18.95,0000 0000 0000 0000 000000
2017-08-09 04:48:20,2.72,10.48,2.00,26.59,30.06,32.40,13.79,68.87,1007.86,2017.07,1010.42,1540.61,1657.66,598.42,582.56,19.00,0000 0000 0000 0000 000000
2017-08-09 04:53:21,2.72,10.62,2.00,26.65,30.11,32.43,14.00,70.44,1007.84,2017.00,993.92,1533.45,1649.35,599.82,583.67,19.05,0000 0000 0000 0000 000000
2017-08-09 04:58:22,2.68,10.76,2.27,26.71,30.14,32.47,13.95,70.48,1007.83,2016.99,977.72,1526.64,1641.62,600.04,583.63,19.10,0000 0000 0000 0000 000000
2017-08-09 05:03:24,2.53,10.89,3.00,26.77,30.18,32.51,13.93,71.47,1007.83,2016.94,962.48,1520.33,1634.45,600.27,583.72,19.15,0000 0000 0000 0000 000000
2017-08-09 05:08:25,2.39,11.01,3.00,26.84,30.23,32.56,14.01,72.11,1007.80,2016.64,947.91,1514.48,1627.77,599.76,582.91,19.20,0000 0000 0000 0000 000000
2017-08-09 05:13:26,2.31,11.12,3.00,26.90,30.27,32.61,13.98,72.97,1007.42,2016.07,933.98,1508.95,1621.47,599.83,582.94,19.26,0000 0000 0000 0000 000000
2017-08-09 05:18:27,2.39,11.24,3.00,26.96,30.31,32.65,13.95,73.13,1007.34,2016.00,920.10,1503.67,1615.46,599.72,582.48,19.31,0000 0000 0000 0000 000000
2017-08-09 05:23:29,2.39,11.37,3.00,27.02,30.36,32.70,13.98,73.88,1007.34,2016.00,906.44,1498.51,1609.55,600.20,582.77,19.36,0000 0000 0000 0000 000000
2017-08-09 05:28:30,2.35,11.48,2.73,27.08,30.40,32.74,14.10,74.60,1007.32,2015.98,893.08,1493.56,1603.85,600.16,582.88,19.41,0000 0000 0000 0000 000000
2017-08-09 05:33:31,2.28,11.60,2.00,27.14,30.45,32.80,13.99,74.90,1007.33,2015.57,879.78,1488.62,1598.35,599.78,582.23,19.46,0000 0000 0000 0000 000000
2017-08-09 05:38:33,2.31,11.71,2.00,27.21,30.50,32.85,14.04,75.63,1007.34,2015.04,866.73,1483.82,1592.96,600.13,582.50,19.51,0000 0000 0000 0000 000000
2017-08-09 05:43:34,2.41,11.83,2.00,27.26,30.55,32.90,14.08,76.63,1007.30,2015.01,853.67,1479.08,1587.53,600.15,582.39,19.56,0000 0000 0000 0000 000000
2017-08-09 05:48:36,2.49,11.96,2.00,27.33,30.60,32.96,13.97,76.67,1007.15,2014.97,840.47,1474.20,1582.01,600.00,581.99,19.61,0000 0000 0000 0000 000000
2017-08-09 05:53:37,2.46,12.08,2.00,27.39,30.65,33.00,13.97,77.75,1007.02,2014.66,826.95,1469.64,1576.61,599.63,581.55,19.66,0000 0000 0000 0000 000000
2017-08-09 05:58:38,2.62,12.21,2.00,27.45,30.70,33.07,13.98,78.34,1006.92,2014.05,813.08,1464.86,1571.11,599.78,581.54,19.71,0000 0000 0000 0000 000000
2017-08-09 06:03:40,2.80,12.35,2.00,27.51,30.75,33.12,14.10,79.18,1006.88,2014.00,798.94,1459.82,1565.32,600.07,581.54,19.76,0000 0000 0000 0000 000000
2017-08-09 06:08:41,2.90,12.49,2.00,27.57,30.80,33.18,14.07,79.86,1006.87,2013.99,784.60,1454.56,1559.39,599.81,581.17,19.81,0000 0000 0000 0000 000000
2017-08-09 06:13:42,2.83,12.63,2.00,27.64,30.86,33.23,14.02,80.42,1006.86,2013.81,770.60,1449.30,1553.62,599.90,581.12,19.86,0000 0000 0000 0000 000000
2017-08-09 06:18:43,2.74,12.77,2.00,27.69,30.91,33.29,14.02,81.12,1006.87,2013.16,757.02,1444.23,1547.94,599.62,580.75,19.91,0000 0000 0000 0000 000000
2017-08-09 06:23:44,2.77,12.91,2.00,27.75,30.96,33.34,14.04,81.31,1006.86,2013.00,743.82,1439.44,1542.61,599.82,580.77,19.96,0000 0000 0000 0000 000000
2017-08-09 06:28:45,2.69,13.05,2.33,27.82,31.02,33.40,14.07,82.08,1006.86,2012.98,731.05,1435.01,1537.70,599.93,580.85,20.01,0000 0000 0000 0000 000000
2017-08-09 06:33:47,2.61,13.18,3.00,27.88,31.07,33.45,14.07,82.77,1006.87,2012.72,718.76,1430.71,1533.08,599.80,580.58,20.06,0000 0000 0000 0000 000000
2017-08-09 06:38:48,2.57,13.31,3.00,27.93,31.13,33.51,14.08,83.53,1006.86,2012.14,706.72,1426.44,1528.36,599.76,580.34,20.11,0000 0000 0000 0000 000000
2017-08-09 06:43:50,2.69,13.45,3.00,27.99,31.18,33.57,14.10,84.13,1006.85,2012.00,694.86,1422.29,1523.62,600.01,580.47,20.16,0000 0000 0000 0000 000200
2017-08-09 06:48:51,2.83,2.25,3.00,28.06,31.24,33.63,12.11,43.81,1006.85,2016.40,3009.45,2784.29,3177.79,536.35,519.71,0.00,0000 0000 0000 0000 000000
2017-08-09 06:53:51,2.89,0.08,3.00,28.10,31.30,33.69,13.47,46.24,1006.85,2017.00,3397.11,3015.09,3448.27,599.83,580.16,0.05,0000 0000 0000 0000 000000
2017-08-09 06:58:53,3.07,0.26,3.00,28.16,31.35,33.72,13.46,46.38,1006.85,2016.50,3316.13,2969.40,3382.34,599.52,579.64,0.10,0000 0000 0000 0000 000000
2017-08-09 07:03:54,3.25,0.43,3.00,28.22,31.40,33.78,13.47,46.27,1006.85,2016.01,3240.32,2925.65,3320.90,599.85,579.87,0.15,0000 0000 0000 0000 000000
2017-08-09 07:08:55,3.34,0.59,3.00,28.28,31.46,33.83,13.51,46.40,1006.85,2015.92,3169.93,2884.74,3264.31,600.12,580.11,0.20,0000 0000 0000 0000 000000
2017-08-09 07:13:56,3.27,0.75,3.00,28.33,31.52,33.89,13.50,46.35,1006.85,2015.15,3103.43,2845.56,3210.91,600.06,579.85,0.25,0000 0000 0000 0000 000000
2017-08-09 07:18:57,3.19,0.91,3.00,28.39,31.58,33.94,13.48,46.61,1006.85,2014.92,3039.49,2807.34,3159.80,600.14,579.77,0.30,0000 0000 0000 0000 000000
2017-08-09 07:23:59,3.01,1.06,3.00,28.44,31.63,34.00,13.42,46.62,1006.85,2014.22,2978.18,2770.27,3111.04,599.58,579.19,0.35,0000 0000 0000 0000 000000
2017-08-09 07:29:00,3.02,1.20,3.00,28.51,31.69,34.06,13.50,46.69,1006.85,2013.99,2919.04,2734.16,3064.13,599.80,579.34,0.40,0000 0000 0000 0000 000000
2017-08-09 07:34:01,2.94,1.36,3.00,28.58,31.75,34.12,13.48,46.99,1006.85,2013.72,2862.65,2699.39,3019.38,599.81,579.17,0.45,0000 0000 0000 0000 000000
2017-08-09 07:39:03,2.88,1.50,3.00,28.64,31.80,34.16,13.48,47.29,1006.85,2013.04,2808.45,2665.81,2976.48,600.13,579.49,0.50,0000 0000 0000 0000 000000
2017-08-09 07:44:04,2.95,1.65,3.00,28.69,31.85,34.22,13.56,47.49,1006.83,2012.96,2755.43,2632.57,2934.48,600.09,579.30,0.55,0000 0000 0000 0000 000000
2017-08-09 07:49:05,2.87,1.80,3.00,28.75,31.91,34.28,13.54,47.58,1006.85,2012.25,2703.94,2600.14,2893.72,599.86,578.93,0.60,0000 0000 0000 0000 000000
2017-08-09 07:54:07,2.97,1.94,3.00,28.81,31.97,34.34,13.50,47.77,1006.85,2012.00,2653.64,2568.08,2853.94,600.00,578.96,0.65,0000 0000 0000 0000 000000
2017-08-09 07:59:08,2.96,2.09,3.00,28.87,32.03,34.39,13.54,47.88,1006.85,2011.84,2604.42,2536.65,2814.94,599.82,578.64,0.70,0000 0000 0000 0000 000000
2017-08-09 08:04:09,2.93,2.24,3.00,28.93,32.08,34.44,13.54,48.13,1006.85,2011.08,2556.17,2505.41,2776.64,600.22,578.94,0.75,0000 0000 0000 0000 000000
2017-08-09 08:09:10,2.98,2.39,3.00,28.98,32.14,34.50,13.46,48.42,1006.85,2011.00,2509.11,2475.03,2739.56,599.80,578.43,0.81,0000 0000 0000 0000 000000
2017-08-09 08:14:11,2.93,2.54,3.00,29.04,32.20,34.55,13.52,48.69,1006.85,2010.73,2463.54,2445.53,2703.72,599.78,578.35,0.86,0000 0000 0000 0000 000000
2017-08-09 08:19:13,2.91,2.68,3.00,29.09,32.25,34.61,13.53,48.98,1006.85,2010.05,2418.97,2416.82,2668.88,600.27,578.74,0.91,0000 0000 0000 0000 000000
2017-08-09 08:24:14,3.00,2.83,3.00,29.14,32.31,34.67,13.57,49.38,1006.85,2009.99,2374.81,2388.40,2634.58,600.17,578.49,0.96,0000 0000 0000 0000 000000
2017-08-09 08:29:15,2.92,2.98,3.00,29.19,32.36,34.73,13.44,49.62,1006.85,2009.51,2331.58,2360.83,2601.33,599.61,577.86,1.01,0000 0000 0000 0000 000000
2017-08-09 08:34:16,3.06,3.14,3.00,29.24,32.42,34.78,13.44,49.83,1006.85,2009.02,2288.43,2333.33,2568.30,599.79,577.88,1.06,0000 0000 0000 0000 000000
2017-08-09 08:39:17,3.13,3.29,3.00,29.28,32.47,34.84,13.53,50.26,1006.85,2008.99,2245.33,2305.89,2535.57,599.78,577.89,1.11,0000 0000 0000 0000 000000
2017-08-09 08:44:19,3.12,3.45,3.00,29.32,32.53,34.89,13.55,50.63,1006.85,2008.53,2202.41,2278.68,2502.99,599.72,577.70,1.16,0000 0000 0000 0000 000000
2017-08-09 08:49:20,3.26,3.61,3.00,29.37,32.58,34.94,13.58,51.10,1006.85,2008.02,2159.28,2251.35,2470.65,600.08,577.98,1.21,0000 0000 0000 0000 000000
2017-08-09 08:54:22,3.38,3.77,3.00,29.41,32.64,34.99,13.53,51.38,1006.85,2007.99,2116.13,2224.13,2438.26,600.02,577.78,1.26,0000 0000 0000 0000 000000
2017-08-09 08:59:23,3.29,3.94,3.00,29.44,32.69,35.04,13.56,51.84,1006.85,2007.50,2073.67,2197.31,2406.63,600.05,577.77,1.31,0000 0000 0000 0000 000000
2017-08-09 09:04:24,3.31,4.10,3.00,29.49,32.74,35.10,13.52,52.29,1006.85,2007.03,2032.53,2171.52,2376.12,600.42,578.06,1.36,0000 0000 0000 0000 000000
2017-08-09 09:09:25,3.31,4.27,3.00,29.53,32.79,35.14,13.54,52.63,1006.85,2006.99,1992.62,2146.60,2346.91,600.12,577.68,1.41,0000 0000 0000 0000 000000
2017-08-09 09:14:27,3.20,4.44,3.00,29.56,32.84,35.19,13.58,52.89,1006.85,2006.60,1954.36,2122.59,2318.71,600.03,577.51,1.46,0000 0000 0000 0000 000000
2017-08-09 09:19:28,3.22,4.60,3.00,29.60,32.89,35.24,13.55,53.37,1006.86,2006.04,1917.00,2099.29,2291.48,599.67,577.25,1.51,0000 0000 0000 0000 000000
2017-08-09 09:24:29,3.27,4.76,3.00,29.63,32.94,35.28,13.63,54.19,1006.87,2005.99,1880.52,2076.50,2264.92,600.20,577.64,1.56,0000 0000 0000 0000 000000
2017-08-09 09:29:30,3.13,4.92,3.00,29.66,32.99,35.33,13.58,54.51,1006.86,2005.59,1845.28,2054.57,2239.45,599.92,577.24,1.61,0000 0000 0000 0000 000000
2017-08-09 09:34:31,3.07,5.08,3.00,29.67,33.03,35.38,13.61,54.80,1006.88,2005.08,1811.45,2033.95,2215.35,599.91,577.23,1.66,0000 0000 0000 0000 000000
2017-08-09 09:39:32,3.04,5.23,3.00,29.71,33.08,35.43,13.57,55.35,1007.19,2004.99,1779.22,2014.23,2192.45,599.97,577.46,1.71,0000 0000 0000 0000 000000
2017-08-09 09:44:33,2.93,5.38,3.00,29.74,33.13,35.48,13.61,55.77,1007.11,2004.69,1748.04,1995.34,2170.65,600.11,577.34,1.76,0000 0000 0000 0000 000000
2017-08-09 09:49:35,2.91,5.53,3.00,29.76,33.17,35.51,13.63,56.31,1006.94,2004.20,1717.80,1977.17,2149.56,600.18,577.33,1.81,0000 0000 0000 0000 000000
2017-08-09 09:54:36,2.91,5.67,3.00,29.80,33.21,35.55,13.61,57.11,1006.86,2004.00,1688.48,1959.69,2129.32,600.23,577.28,1.86,0000 0000 0000 0000 000000
2017-08-09 09:59:37,2.92,5.82,3.00,29.82,33.26,35.60,13.64,57.25,1006.86,2003.99,1660.02,1942.56,2109.58,600.00,576.95,1.91,0000 0000 0000 0000 000000
2017-08-09 10:04:38,2.84,5.96,3.00,29.85,33.30,35.63,13.58,57.80,1006.90,2003.77,1632.22,1925.99,2090.60,599.40,576.44,1.96,0000 0000 0000 0000 000000
2017-08-09 10:09:39,2.80,6.10,3.00,29.88,33.34,35.68,13.69,58.24,1006.97,2003.10,1604.97,1909.88,2071.96,600.38,577.27,2.01,0000 0000 0000 0000 000000
2017-08-09 10:14:41,2.89,6.25,3.00,29.91,33.38,35.72,13.62,58.76,1007.28,2003.00,1578.22,1894.07,2053.78,600.16,577.35,2.06,0000 0000 0000 0000 000000
2017-08-09 10:19:42,2.90,6.39,3.00,29.94,33.42,35.76,13.71,59.23,1007.34,2002.91,1551.63,1878.29,2036.02,600.49,577.54,2.11,0000 0000 0000 0000 000000
2017-08-09 10:24:44,2.88,6.54,3.00,29.97,33.46,35.79,13.57,59.61,1007.35,2002.51,1525.50,1862.84,2018.23,599.56,576.63,2.16,0000 0000 0000 0000 000000
2017-08-09 10:29:45,2.91,6.69,3.00,30.01,33.50,35.83,13.63,60.12,1007.36,2002.05,1499.50,1847.76,2000.80,600.05,577.02,2.21,0000 0000 0000 0000 000000
2017-08-09 10:34:46,2.92,6.83,3.00,30.03,33.54,35.86,13.67,60.77,1007.35,2002.00,1474.11,1833.08,1984.13,599.80,576.71,2.26,0000 0000 0000 0000 000000
2017-08-09 10:39:47,2.88,6.98,3.00,30.06,33.58,35.90,13.67,61.28,1007.35,2001.97,1449.55,1818.95,1968.22,600.05,576.94,2.31,0000 0000 0000 0000 000000
2017-08-09 10:44:48,2.82,7.12,3.00,30.09,33.62,35.94,13.67,61.84,1007.35,2001.74,1425.47,1805.29,1952.71,600.01,576.88,2.36,0000 0000 0000 0000 000000
2017-08-09 10:49:50,2.80,7.26,3.00,30.11,33.66,35.98,13.65,62.54,1007.37,2001.23,1401.88,1792.00,1937.48,599.72,576.60,2.41,0000 0000 0000 0000 000000
2017-08-09 10:54:51,2.81,7.40,3.00,30.14,33.69,36.01,13.67,63.02,1007.58,2001.01,1378.85,1779.11,1922.83,599.86,576.65,2.46,0000 0000 0000 0000 000000
2017-08-09 10:59:52,2.81,7.55,3.00,30.16,33.73,36.05,13.72,63.85,1007.57,2001.00,1356.33,1766.56,1908.66,600.48,577.25,2.51,0000 0000 0000 0000 000000
2017-08-09 11:04:53,2.80,7.68,3.00,30.19,33.76,36.09,13.73,64.56,1007.79,2001.00,1334.55,1754.33,1894.74,599.75,576.59,2.56,0000 0000 0000 0000 000000
2017-08-09 11:09:54,2.83,7.83,3.00,30.20,33.80,36.12,13.65,64.62,1007.78,2000.92,1312.65,1742.21,1880.96,599.41,576.19,2.61,0000 0000 0000 0000 000000
2017-08-09 11:14:55,2.70,7.97,3.00,30.23,33.84,36.15,13.76,65.83,1007.77,2000.38,1291.28,1730.50,1867.72,599.93,576.70,2.66,0000 0000 0000 0000 000000
2017-08-09 11:19:57,2.71,8.10,3.00,30.25,33.87,36.19,13.74,66.41,1007.74,2000.02,1270.70,1719.45,1855.12,600.05,576.76,2.71,0000 0000 0000 0000 000000
2017-08-09 11:24:58,2.73,8.24,3.00,30.27,33.90,36.22,13.73,66.63,1007.82,2000.00,1250.60,1708.62,1842.98,600.40,577.19,2.76,0000 0000 0000 0000 000000
2017-08-09 11:29:59,2.74,8.38,3.00,30.28,33.93,36.25,13.81,67.70,1007.83,1999.99,1230.79,1697.94,1830.88,600.46,577.15,2.81,0000 0000 0000 0000 000000
2017-08-09 11:35:00,2.73,8.51,3.00,30.30,33.96,36.28,13.75,67.92,1007.83,1999.97,1211.42,1687.37,1819.00,600.11,576.75,2.86,0000 0000 0000 0000 000000
2017-08-09 11:40:01,2.66,8.65,3.00,30.32,33.99,36.31,13.78,68.80,1007.83,1999.72,1192.37,1677.15,1807.50,600.18,576.79,2.91,0000 0000 0000 0000 000000
2017-08-09 11:45:03,2.65,8.78,3.00,30.35,34.02,36.34,13.80,69.75,1007.83,1999.17,1173.65,1667.21,1796.27,599.99,576.58,2.96,0000 0000 0000 0000 000000
2017-08-09 11:50:04,2.67,8.91,3.00,30.36,34.05,36.37,13.80,70.08,1007.83,1999.01,1155.32,1657.58,1785.39,599.65,576.23,3.01,0000 0000 0000 0000 000000
2017-08-09 11:55:05,2.69,9.05,3.00,30.37,34.08,36.40,13.74,70.53,1007.84,1999.00,1137.40,1648.05,1774.69,599.67,576.18,3.06,0000 0000 0000 0000 000000
2017-08-09 12:00:06,2.71,9.18,3.00,30.39,34.11,36.42,13.81,71.51,1007.89,1998.98,1119.70,1638.67,1764.19,600.24,576.84,3.11,0000 0000 0000 0000 000000
2017-08-09 12:05:07,2.69,9.32,3.00,30.42,34.14,36.45,13.85,72.10,1007.88,1998.82,1102.09,1629.41,1753.74,600.06,576.58,3.16,0000 0000 0000 0000 000000
2017-08-09 12:10:09,2.64,9.46,3.00,30.44,34.16,36.46,13.82,72.83,1007.88,1998.38,1084.93,1620.31,1743.49,599.85,576.31,3.21,0000 0000 0000 0000 000000
2017-08-09 12:15:11,2.69,9.59,3.00,30.45,34.19,36.50,13.83,73.38,1007.84,1998.10,1067.90,1611.41,1733.50,600.00,576.46,3.27,0000 0000 0000 0000 000000
2017-08-09 12:20:12,2.70,9.72,3.00,30.45,34.21,36.52,13.85,74.11,1007.84,1998.00,1051.11,1602.67,1723.91,600.04,576.42,3.32,0000 0000 0000 0000 000000
2017-08-09 12:25:13,2.69,9.86,3.00,30.48,34.24,36.55,13.84,74.78,1007.87,1998.00,1034.76,1594.37,1714.41,599.78,576.25,3.37,0000 0000 0000 0000 000000
2017-08-09 12:30:14,2.72,9.99,3.00,30.50,34.26,36.57,13.86,75.27,1008.18,1997.99,1018.52,1585.95,1705.01,600.09,576.56,3.42,0000 0000 0000 0000 000000
2017-08-09 12:35:15,2.73,10.13,3.00,30.52,34.29,36.60,13.89,75.89,1008.28,1997.93,1002.48,1577.67,1695.68,599.91,576.40,3.47,0000 0000 0000 0000 000000
2017-08-09 12:40:16,2.65,10.27,3.00,30.52,34.31,36.62,13.90,76.76,1008.29,1997.65,986.79,1569.62,1686.71,600.28,576.78,3.52,0000 0000 0000 0000 000000
2017-08-09 12:45:18,2.67,10.40,3.00,30.55,34.34,36.65,13.87,77.13,1008.31,1997.19,971.37,1561.69,1677.87,599.84,576.25,3.57,0000 0000 0000 0000 000000
2017-08-09 12:50:19,2.64,10.54,3.00,30.55,34.36,36.67,13.91,77.62,1008.31,1997.12,956.43,1554.08,1669.39,600.01,576.47,3.62,0000 0000 0000 0000 000000
2017-08-09 12:55:20,2.67,10.67,3.00,30.57,34.38,36.69,13.91,78.63,1008.32,1997.01,941.70,1546.59,1661.10,599.96,576.31,3.67,0000 0000 0000 0000 000000